[[{"header":{"parameterUnit":"m.s-1","parameterCategory":1,"la1":30.2991,"la2":30.254,"lo1":-89.0895,"lo2":-89.0444,"dy":0.0017,"dx":0.0017,"nx":28,"ny":28,"refTime":"2023-10-22T03:00:00:Z","depth":0,"parameterNumber":2,"parameterNumberName":"U-component_of_WINDS"},"data":[0,0,0,0,0,0,0,0,0,0,0,0,0,0,0,0,0,0,0,0,0,0,0,0,0,0,0,0,0,0,0,0,0,0,0,0,0,0,0,0,0,0,0,0,0,0,0,0,0,0,0,0,0,0,0,0,0,0,0.9713,0.9714,0,0.9793,0.9794,0.9795,0.9827,0.9826,0.9826,0.9826,0.9905,0.9907,0.9909,0,0,0,0,0,0,0,0,0,0,0,0,0,0.9586,0.9588,0.9713,0.9714,0.9715,0.9793,0.9794,0.9795,0.9827,0.9826,0.9826,0.9826,0.9904,0.9907,0.9909,0,0,0,0,0,0,0,0,0,0,0,0,0,0.9651,0.9589,0.9713,0.974,0.9744,0.9793,0.9794,0.9795,0.9827,0.9826,0.9826,0.9826,0.9903,0.9906,0.991,0.9937,0,0,0.992,0.9922,0,0,0,0,0,0,0,0,0.9647,0.9656,0.9735,0.9739,0.9742,0.98,0.9778,0.9843,0.9827,0.9795,0.9826,0.9826,0.987,0.9876,0.9892,0.994,0.9944,0.9921,0.9923,0.9924,0.9925,0,0,0,0,0,0,0,0.9643,0.9652,0.9745,0.9737,0.9741,0.9748,0.9757,0.979,0.9833,0.9798,0.98,0.9809,0.9872,0.9888,0.9894,0.9945,0.992,0.9924,0.9926,0.9927,1.0021,1.0021,0,0,0,0,0,0,0.9634,0.9648,0.9742,0.9747,0.9693,0.975,0.976,0.9781,0.9833,0.984,0.981,0.9811,0.9882,0.989,0.9896,0.9932,0.9924,0.9927,0.9929,1.002,1.0021,1.0021,0,0,0,0,0,0,0.9631,0.9642,0.9739,0.9699,0.9711,0.9753,0.9776,0.9783,0.98,0.9842,0.9849,0.9819,0.9882,0.9892,0.9927,0.9935,0.9929,0.9932,1.002,1.002,1.0021,1.0002,0,0,0,0,0,0,0.9627,0.9641,0.9652,0.9699,0.9713,0.9769,0.9777,0.9785,0.9806,0.9808,0.9852,0.9859,0.9883,0.9922,0.993,0.994,0.9935,1.0019,1.002,1.0021,1.0002,1.0002,1.0002,0,0,0,0,0,0.9623,0.9643,0.9652,0.9663,0.9728,0.9769,0.9777,0.9805,0.9806,0.9818,0.9845,0.9858,0.9933,0.9925,0.9935,0.9945,1.0019,1.002,1.0021,1.0002,1.0002,1.0002,0,0,0,0,0,0,0.9594,0.9649,0.9661,0.9696,0.9728,0.9774,0.9789,0.9804,0.9835,0.9835,0.9868,0.9877,0.991,0.9931,0.9921,0.9974,0.9977,0.998,0.9959,0.9959,0.9959,0.9953,0.9937,0,0,0,0,0,0.9593,0.9622,0.9668,0.9695,0.971,0.9747,0.9766,0.9785,0.9818,0.9831,0.9861,0.9892,0.9923,0.9942,0.9973,1.0006,1.0016,1.0018,1.0018,1.0017,1.0019,1.0039,1.004,1.0025,1.0025,1.0024,0,0,0.9589,0.9622,0.9638,0.969,0.9717,0.9746,0.9758,0.9788,0.981,0.9835,0.9871,0.9894,0.9931,0.9965,0.9982,0.9984,1.0026,1.0019,1.0018,1.002,1.004,1.0041,1.0043,1.0025,1.0025,1.0025,0,0,0.9596,0.9625,0.9651,0.9678,0.9719,0.9743,0.9749,0.9794,0.981,0.9847,0.9867,0.9893,0.9945,0.9971,0.9991,1.001,1.0023,1.0019,1.0018,1.0036,1.0038,1.0039,1.0046,1.0048,1.0021,1.0021,1.0021,0,0.9586,0.9631,0.9662,0.9691,0.9714,0.974,0.9766,0.979,0.9838,0.9853,0.9855,0.9922,0.9948,0.9989,0.9994,1.0009,1.0017,1.0013,1.0035,1.0037,1.0038,1.0045,1.0048,1.002,1.002,1.002,1.002,0,0.9617,0.9648,0.9664,0.9711,0.9735,0.9763,0.9797,0.9817,0.9834,0.9858,0.9895,0.9929,0.9967,0.9978,0.9994,1.0021,1.0022,1.0029,1.0032,1.0038,1.0045,1.0048,1.0019,1.0019,1.0019,1.0019,0,0,0.9608,0.9673,0.9678,0.97,0.9748,0.9772,0.9801,0.9839,0.9856,0.9889,0.9914,0.9958,0.9965,0.9988,1.0008,1.0024,1.0037,1.0029,1.0031,1.003,1.0069,1.0063,1.0066,1.0046,1.0047,1.0048,1.0066,0,0.9622,0.9676,0.9705,0.9746,0.9775,0.9801,0.9826,0.9858,0.9881,0.9909,0.9935,0.9965,0.9973,0.9987,1.0004,1.0032,1.0045,1.0031,1.0069,1.007,1.0059,1.007,1.0063,1.0079,1.0069,1.007,1.007,0,0.9645,0.9679,0.9724,0.9769,0.9782,0.9804,0.9842,0.9868,0.9905,0.9921,0.9947,0.9966,0.9997,0.9998,1.0041,1.0031,1.0049,1.0064,1.0066,1.007,1.007,1.0074,1.0085,1.0087,1.0075,1.0074,1.0074,0,0.9635,0.9691,0.9725,0.9743,0.9797,0.9812,0.9834,0.9871,0.9892,0.9925,0.9939,0.9975,0.9994,1.0021,1.005,1.0048,1.009,1.0093,1.0104,1.0103,1.0111,1.011,1.0125,1.0123,1.0123,1.0123,1.0123,0,0.9647,0.9674,0.9721,0.9742,0.9773,0.9805,0.9834,0.9859,0.9891,0.9917,0.9941,0.9964,1.0001,1.0029,1.0051,1.0084,1.0092,1.0106,1.0112,1.0104,1.0102,1.0115,1.0115,1.0123,1.0123,1.0123,1.0123,0,0.964,0.9674,0.9713,0.976,0.9773,0.9793,0.9834,0.9855,0.988,0.9912,0.9922,0.9961,0.9995,1.0027,1.0072,1.0087,1.012,1.0127,1.0108,1.0111,1.012,1.0119,1.0143,1.0148,1.0143,1.0143,1.0143,0,0.9646,0.9667,0.9718,0.9737,0.976,0.9791,0.9814,0.9847,0.9869,0.9912,0.9928,0.9965,0.9995,1.0049,1.0081,1.0116,1.0124,1.0131,1.013,1.0121,1.0124,1.0123,1.0125,1.013,1.013,1.013,1.013,0,0.9653,0.9669,0.9701,0.9739,0.9765,0.9796,0.9828,0.9843,0.9882,0.9905,0.9941,0.9965,1.0013,1.0048,1.0087,1.011,1.0126,1.013,1.0134,1.0126,1.0114,1.0121,1.0107,1.0129,1.0129,1.0129,1.0129,1.0129,0.9653,0.9673,0.9712,0.9747,0.9775,0.9804,0.9827,0.9855,0.9886,0.9928,0.9945,0.9982,1.0018,1.0072,1.0095,1.0123,1.0127,1.0133,1.0134,1.0135,1.0134,1.011,1.0131,1.0131,1.0131,1.0131,1.0131,0,0.9661,0.9688,0.972,0.9764,0.9792,0.9806,0.9842,0.9864,0.9896,0.9929,0.9959,1.0001,1.0036,1.0071,1.0108,1.0124,1.0133,1.0133,1.0132,1.0137,1.0129,1.0121,1.0125,1.0125,1.0125,1.0125,1.0125,1.0125,0.9669,0.9704,0.9724,0.9773,0.9799,0.9836,0.9856,0.9883,0.9909,0.9955,0.9985,1.0008,1.0042,1.0082,1.0114,1.0124,1.0136,1.0134,1.0145,1.0137,1.0137,1.0137,1.0131,1.0137,1.0137,1.0151,1.0151,1.0151]},{"header":{"parameterUnit":"m.s-1","parameterCategory":1,"la1":30.2991,"la2":30.254,"lo1":-89.0895,"lo2":-89.0444,"dy":0.0017,"dx":0.0017,"nx":28,"ny":28,"refTime":"2023-10-22T03:00:00:Z","depth":0,"parameterNumber":3,"parameterNumberName":"V-component_of_WINDS"},"data":[0,0,0,0,0,0,0,0,0,0,0,0,0,0,0,0,0,0,0,0,0,0,0,0,0,0,0,0,0,0,0,0,0,0,0,0,0,0,0,0,0,0,0,0,0,0,0,0,0,0,0,0,0,0,0,0,0,0,1.4274,1.4274,0,1.4258,1.4258,1.4257,1.4232,1.4231,1.4231,1.423,1.4213,1.4213,1.4213,0,0,0,0,0,0,0,0,0,0,0,0,0,1.4282,1.4282,1.4274,1.4274,1.4274,1.4258,1.4258,1.4257,1.4232,1.4231,1.423,1.423,1.4213,1.4213,1.4213,0,0,0,0,0,0,0,0,0,0,0,0,0,1.4274,1.4282,1.4274,1.4259,1.4257,1.4258,1.4258,1.4257,1.4232,1.4231,1.423,1.423,1.4213,1.4213,1.4213,1.4226,0,0,1.4212,1.4212,0,0,0,0,0,0,0,0,1.4274,1.4273,1.4261,1.426,1.4258,1.4246,1.4254,1.4247,1.4232,1.4241,1.423,1.4229,1.4224,1.4223,1.4222,1.4225,1.4225,1.4212,1.4212,1.4212,1.4212,0,0,0,0,0,0,0,1.4275,1.4274,1.4267,1.4261,1.4259,1.4253,1.4251,1.4253,1.4237,1.4241,1.4239,1.4237,1.4223,1.4222,1.4221,1.4224,1.4212,1.4212,1.4212,1.4212,1.4239,1.424,0,0,0,0,0,0,1.4278,1.4275,1.4268,1.4267,1.4265,1.4253,1.4251,1.4251,1.4237,1.4234,1.4238,1.4236,1.4222,1.4221,1.422,1.4236,1.4212,1.4212,1.4212,1.4239,1.424,1.424,0,0,0,0,0,0,1.4278,1.4277,1.4269,1.427,1.4269,1.4254,1.4254,1.4251,1.4249,1.4235,1.4232,1.4239,1.4222,1.422,1.4225,1.4235,1.4212,1.4212,1.4238,1.4239,1.424,1.4267,0,0,0,0,0,0,1.4278,1.4278,1.4283,1.4271,1.4269,1.4274,1.4254,1.4251,1.4249,1.4247,1.4235,1.4233,1.4221,1.4225,1.4225,1.4234,1.4212,1.4237,1.4238,1.424,1.4265,1.4269,1.4272,0,0,0,0,0,1.4279,1.429,1.4283,1.4282,1.4275,1.4275,1.4273,1.426,1.425,1.4255,1.4246,1.4233,1.4234,1.4226,1.4226,1.4235,1.4236,1.4238,1.4239,1.4263,1.4268,1.4272,0,0,0,0,0,0,1.4303,1.4289,1.428,1.4288,1.4283,1.427,1.4276,1.4265,1.4262,1.426,1.4243,1.4241,1.4248,1.4242,1.4233,1.4248,1.4233,1.4235,1.4251,1.4256,1.4259,1.426,1.4212,0,0,0,0,0,1.431,1.4311,1.4298,1.4307,1.4304,1.4291,1.429,1.428,1.4274,1.4271,1.4263,1.4257,1.4256,1.4255,1.4254,1.4264,1.4261,1.427,1.4274,1.4277,1.4278,1.4284,1.4288,1.4246,1.4246,1.4246,0,0,1.4323,1.4315,1.4317,1.4311,1.4306,1.4308,1.4289,1.4291,1.4292,1.4272,1.4276,1.4269,1.4262,1.427,1.4273,1.4265,1.4289,1.4279,1.4281,1.4281,1.4286,1.429,1.4293,1.4247,1.4247,1.4247,0,0,1.4348,1.4342,1.4349,1.4344,1.4337,1.4328,1.4329,1.4319,1.4314,1.4318,1.4302,1.4303,1.4302,1.4297,1.4295,1.4319,1.4307,1.4319,1.4337,1.4343,1.4346,1.4349,1.4358,1.4361,1.4321,1.4321,1.4321,0,1.4365,1.4367,1.4354,1.4357,1.4355,1.4338,1.4344,1.434,1.4332,1.4332,1.4323,1.4322,1.4315,1.4322,1.4328,1.4327,1.4328,1.432,1.4347,1.4349,1.4352,1.436,1.4363,1.4322,1.4322,1.4322,1.4322,0,1.4389,1.4391,1.4397,1.4391,1.439,1.4395,1.4382,1.4382,1.4373,1.4365,1.437,1.4362,1.4358,1.4359,1.435,1.4365,1.4361,1.435,1.4334,1.4357,1.4365,1.4368,1.4325,1.4324,1.4324,1.4323,0,0,1.4428,1.4415,1.4417,1.4414,1.4405,1.4406,1.4411,1.4408,1.4409,1.4405,1.4408,1.4408,1.4398,1.4395,1.4385,1.439,1.4411,1.4379,1.4379,1.4385,1.4427,1.4435,1.4439,1.4403,1.4404,1.4404,1.4428,0,1.4451,1.4458,1.4447,1.4456,1.4458,1.4442,1.4446,1.4441,1.4434,1.4434,1.4426,1.4426,1.4413,1.4412,1.4416,1.4407,1.4419,1.4406,1.4406,1.4406,1.4408,1.4443,1.4451,1.4474,1.4431,1.4431,1.4432,0,1.4478,1.4476,1.4486,1.4477,1.4477,1.4481,1.4478,1.4479,1.4473,1.4467,1.4465,1.4454,1.4458,1.4444,1.4449,1.444,1.444,1.4436,1.4437,1.4436,1.442,1.4443,1.4481,1.4484,1.4436,1.4436,1.4435,0,1.4506,1.4505,1.4511,1.4509,1.4499,1.4502,1.4498,1.4492,1.4491,1.4488,1.4488,1.4485,1.4484,1.4483,1.4471,1.4462,1.4478,1.4463,1.4474,1.4474,1.4477,1.4477,1.4516,1.4478,1.4478,1.4478,1.4478,0,1.4533,1.4539,1.4524,1.4527,1.4535,1.4522,1.4529,1.4523,1.4518,1.452,1.4506,1.4509,1.4494,1.4495,1.4486,1.4492,1.4491,1.4487,1.4484,1.4488,1.4489,1.4487,1.4485,1.4478,1.4478,1.4478,1.4478,0,1.4564,1.4554,1.456,1.455,1.4548,1.4553,1.4545,1.4548,1.4541,1.4544,1.4544,1.4532,1.4533,1.4521,1.4519,1.4513,1.4523,1.4518,1.4525,1.4524,1.4535,1.4534,1.4574,1.4578,1.4538,1.4538,1.4539,0,1.4582,1.4587,1.4578,1.4579,1.4575,1.4577,1.4576,1.4563,1.4563,1.4558,1.4562,1.4561,1.456,1.4562,1.4553,1.4552,1.4546,1.456,1.4546,1.455,1.4546,1.4546,1.4547,1.4563,1.4564,1.4564,1.4564,0,1.4614,1.4609,1.4609,1.4607,1.4607,1.4605,1.4602,1.4604,1.459,1.4591,1.4591,1.4591,1.4589,1.4589,1.4586,1.4582,1.4571,1.4569,1.4572,1.4575,1.4579,1.4577,1.4533,1.4568,1.4568,1.4567,1.4567,1.4567,1.4639,1.4643,1.4637,1.4638,1.4634,1.4632,1.4635,1.4628,1.4629,1.4627,1.4619,1.4622,1.4616,1.4612,1.4608,1.461,1.4603,1.4606,1.4607,1.4608,1.461,1.4579,1.4609,1.4609,1.4609,1.4609,1.4609,0,1.467,1.4666,1.4667,1.4663,1.4664,1.4654,1.4651,1.4652,1.4654,1.465,1.465,1.4651,1.4651,1.4643,1.4642,1.4645,1.464,1.4645,1.4644,1.4644,1.4617,1.4615,1.4649,1.4649,1.4649,1.4649,1.4649,1.4649,1.4686,1.4693,1.4687,1.4692,1.4688,1.469,1.4689,1.4687,1.4684,1.4686,1.4686,1.4681,1.4675,1.4674,1.4674,1.4671,1.4672,1.4679,1.4675,1.4649,1.4645,1.4642,1.464,1.4679,1.4679,1.4701,1.4702,1.4702]}]]